Theta_e
323 316 312 315 305 303 295 296 299 303 305 308 310 307 300 301 300 295 316 313 327 340 345 345 347 349 350 350 350 349 351 351 351 351 350 349 349 351 350 350 350 350 350 349 350 349 348 348 347
319 316 316 311 300 294 293 299 303 306 310 311 311 308 305 296 301 301 302 307 317 335 343 344 343 347 349 349 348 348 349 350 350 349 350 348 348 348 351 351 350 350 349 348 349 348 347 347 347
314 316 311 305 301 295 298 307 307 308 312 310 308 298 294 293 299 299 304 306 310 321 340 343 343 347 347 348 348 348 347 348 349 349 349 348 348 348 349 351 351 349 348 348 348 347 346 347 346
307 315 313 302 297 305 307 309 310 311 311 311 299 292 295 297 298 301 304 304 305 304 305 313 330 338 346 347 348 348 347 346 346 348 349 350 349 348 344 349 350 349 349 348 348 347 347 346 346
307 309 303 301 301 304 308 312 312 297 298 297 299 291 293 297 299 301 300 302 301 302 303 304 315 317 319 321 344 347 347 346 346 346 347 349 350 349 348 349 349 348 348 349 349 349 347 346 345
300 307 299 298 302 306 306 299 298 293 292 293 295 292 290 297 297 299 299 299 300 300 301 301 306 311 313 315 320 331 344 346 345 345 345 346 347 347 348 348 348 348 348 348 348 347 346 344 344
299 300 298 300 301 295 294 296 293 292 291 289 292 289 290 293 297 297 297 297 297 298 299 298 299 302 307 311 315 315 322 339 342 343 343 342 342 343 344 345 346 347 347 347 346 345 343 342 342
299 297 296 294 294 289 292 294 294 291 285 291 290 284 285 291 295 296 295 295 295 295 296 296 296 297 298 300 308 312 314 318 337 338 336 335 335 337 337 336 339 345 345 345 344 344 342 341 341
300 291 288 287 289 288 293 291 294 291 288 288 289 288 290 293 294 292 291 291 292 293 294 294 294 295 296 298 301 305 308 312 315 331 331 330 334 337 336 334 335 340 341 343 344 343 340 337 335
291 286 286 289 288 288 286 288 288 285 284 284 287 290 292 291 290 288 288 287 288 289 291 292 292 293 294 297 298 298 301 302 305 311 330 337 336 336 337 331 330 333 334 338 342 342 336 331 332
291 286 289 287 289 289 287 285 286 283 282 283 284 286 289 289 288 287 287 287 287 288 289 290 291 291 291 293 295 295 297 299 302 304 308 315 336 335 335 333 331 332 326 335 338 338 338 335 332
287 289 289 289 288 287 285 287 285 285 283 288 288 288 288 287 287 287 287 286 286 287 288 289 290 290 290 291 291 292 294 297 299 302 306 308 312 332 336 334 330 330 332 331 333 337 337 334 332
288 287 287 288 287 285 287 285 284 284 287 289 289 289 287 287 287 287 288 288 287 286 287 288 289 288 289 289 290 291 293 296 297 299 303 306 311 315 321 334 330 329 331 331 332 333 335 333 331
286 285 284 284 284 284 285 284 285 285 288 287 287 286 286 286 286 285 286 286 286 287 287 288 288 288 288 288 289 291 292 293 295 297 298 302 304 305 307 311 333 330 330 331 331 331 331 333 333
287 282 282 281 282 281 282 281 281 284 287 286 286 285 286 286 286 284 285 285 286 287 287 287 288 288 287 288 289 289 291 293 293 295 296 299 301 303 304 308 311 330 332 331 329 329 328 329 332
283 282 278 279 281 281 279 276 282 283 283 282 282 281 283 284 285 285 286 286 286 286 287 287 288 287 287 287 288 289 290 291 291 292 294 296 295 298 298 300 304 307 311 332 331 329 326 327 326
276 274 275 275 280 279 279 277 282 284 282 279 279 280 282 282 283 284 285 285 285 286 286 286 287 286 286 287 287 287 288 288 290 291 293 292 294 295 295 297 301 304 306 309 330 329 328 325 323
272 271 274 272 276 278 278 277 281 282 281 279 278 278 280 280 281 283 284 285 285 285 285 286 286 286 286 286 286 286 287 287 288 289 289 290 291 291 293 295 296 301 303 306 307 323 329 326 324
274 273 272 273 277 275 275 276 279 281 280 278 276 277 278 279 281 283 283 283 284 284 284 285 285 285 285 285 284 284 283 285 286 287 288 289 288 290 290 291 293 296 298 301 305 307 320 326 327
274 272 270 273 277 274 274 274 277 280 280 280 279 278 278 278 279 281 282 282 282 282 283 284 284 285 285 285 285 285 284 285 286 286 287 287 288 288 289 289 290 292 293 296 299 305 306 317 326
271 270 269 271 274 275 271 272 275 279 281 281 281 280 279 278 278 278 279 280 280 280 281 283 283 284 284 284 285 284 285 284 284 284 285 286 287 287 287 288 288 288 290 291 295 298 299 301 310
272 273 273 273 271 269 272 268 273 276 278 280 281 278 277 278 278 279 279 280 279 280 281 282 283 283 284 284 283 282 281 280 282 283 284 285 287 286 287 287 287 287 288 289 291 295 296 299 299
272 274 273 273 270 269 269 267 271 276 275 278 279 278 277 278 279 278 278 281 280 281 280 281 281 282 283 282 282 282 281 282 283 283 283 284 285 286 286 287 287 287 288 289 290 291 292 296 299
275 273 273 272 271 263 270 269 267 272 277 277 278 277 278 278 278 279 280 281 280 280 280 280 280 280 281 281 281 281 280 280 280 281 281 282 283 284 285 286 287 287 287 288 290 292 292 295 298
272 271 265 264 260 264 270 268 270 276 277 278 277 277 277 278 278 278 278 279 279 278 279 280 279 279 279 279 279 280 280 280 280 280 280 280 281 282 283 284 284 285 286 287 288 289 290 293 296
271 270 267 260 265 267 271 267 271 276 278 279 278 278 278 278 278 278 279 279 279 279 278 278 278 277 278 278 277 278 278 279 279 279 280 280 280 280 282 283 284 284 285 285 286 287 289 290 291
269 267 270 261 263 261 267 270 275 278 276 276 277 277 277 277 278 279 279 279 279 279 279 278 277 277 277 277 277 276 277 277 276 277 278 278 278 279 280 281 282 283 283 284 285 285 286 288 289
270 272 266 264 256 257 268 266 269 274 275 276 276 276 277 278 278 278 278 279 279 279 279 279 278 277 277 277 276 276 276 276 276 276 276 277 277 277 277 278 278 280 281 282 283 284 285 285 287
267 266 267 268 265 261 261 265 270 274 277 276 277 278 278 277 277 278 278 279 279 279 279 278 277 276 276 277 276 276 276 276 276 276 276 276 277 276 276 277 276 277 278 280 281 282 284 283 285
269 267 267 262 262 263 264 264 276 275 276 277 277 279 277 277 277 277 277 277 278 279 279 278 278 276 276 276 276 276 276 275 275 275 275 275 275 276 275 276 275 276 276 277 280 281 282 282 283
Wind_Speed
16 12 3 4 3 4 3 2 3 5 6 4 3 14 20 18 10 7 7 13 12 5 4 5 6 5 3 5 6 4 3 2 4 5 4 4 5 6 6 5 5 7 8 9 12 12 11 9 13
7 9 3 1 3 3 3 5 10 6 4 4 6 15 19 14 14 6 12 20 10 11 3 3 5 4 5 3 4 5 2 3 2 4 5 4 4 5 6 8 7 6 8 8 9 9 10 9 11
9 6 2 1 2 3 3 5 6 0 5 3 8 13 9 15 11 7 18 22 21 18 11 4 2 2 3 2 4 6 7 2 5 5 6 7 6 5 7 7 7 7 8 6 6 8 11 9 10
4 4 4 3 2 5 4 4 5 3 7 11 16 13 7 16 9 11 20 24 20 20 22 27 27 22 7 10 6 5 6 7 4 5 6 7 9 9 9 8 7 6 7 7 8 10 10 9 9
2 1 0 2 1 3 3 6 11 16 6 11 6 6 7 13 18 19 19 19 21 18 19 20 30 29 29 33 17 7 6 7 7 6 7 7 7 8 10 9 9 8 7 7 7 10 11 11 9
2 2 2 4 2 4 3 5 10 8 10 9 10 7 8 10 19 16 17 17 17 19 18 18 23 27 28 29 29 26 11 9 8 8 8 9 9 9 8 9 10 10 9 8 8 9 11 11 11
2 3 4 3 4 6 4 6 8 10 10 13 4 5 3 18 14 15 15 17 18 19 19 19 18 21 25 25 25 29 25 15 9 10 10 9 9 10 10 10 9 10 10 11 10 11 11 12 11
2 2 2 1 2 1 9 4 3 9 14 2 8 7 6 12 13 13 14 17 17 18 18 19 19 18 18 17 23 26 27 28 14 9 10 10 10 10 10 10 10 12 13 14 13 12 13 13 14
2 3 1 5 3 4 7 5 7 7 9 18 8 6 5 11 13 15 14 17 16 16 17 17 18 18 18 16 17 20 23 24 25 14 9 8 5 6 8 9 11 13 13 14 14 14 14 14 14
4 4 3 3 2 4 9 7 6 7 6 6 9 7 9 11 15 17 17 16 17 18 17 16 17 17 17 14 15 14 14 11 13 14 15 6 7 7 9 10 14 14 14 14 14 15 13 12 6
3 3 6 5 4 5 6 9 5 2 9 4 7 8 11 14 14 14 12 12 14 13 13 16 16 15 16 14 11 8 8 9 9 13 12 15 8 6 6 5 5 7 9 7 9 8 9 11 7
7 9 6 2 6 3 3 5 7 10 4 5 7 8 11 13 13 13 13 12 14 14 15 17 16 15 15 11 10 10 9 9 9 12 14 10 9 10 7 6 7 7 6 8 7 5 7 9 10
10 8 11 8 6 8 13 10 7 6 7 7 8 9 9 9 9 8 9 10 11 14 15 15 14 15 14 13 11 10 10 9 12 11 13 12 12 11 14 7 5 7 7 8 8 9 8 8 10
7 14 7 8 6 5 10 4 5 3 7 8 8 8 7 8 7 6 9 10 11 12 13 14 14 15 14 12 13 10 10 12 10 10 13 15 11 11 11 13 8 6 8 9 9 9 10 11 10
7 7 5 8 6 2 1 6 4 1 7 7 7 6 7 7 7 8 6 8 8 8 11 14 15 15 15 14 12 11 10 11 11 11 14 15 15 15 15 12 11 11 5 11 9 10 9 9 10
4 4 3 3 6 2 2 3 4 2 8 6 6 6 6 7 7 6 7 7 7 9 12 11 12 14 15 13 11 9 10 10 10 10 11 15 16 16 14 11 11 13 14 8 8 10 11 11 11
1 3 4 1 4 3 3 4 6 3 7 6 5 5 5 6 8 7 8 8 8 9 11 12 12 14 13 13 11 11 12 9 10 10 10 16 15 16 14 11 12 15 12 12 10 7 10 11 10
6 5 4 4 3 5 5 5 6 5 7 6 4 5 6 7 5 6 7 7 7 7 8 11 11 13 12 9 9 8 9 9 9 10 11 16 13 16 14 11 13 13 11 12 13 15 9 8 9
3 5 6 3 1 2 3 5 8 8 5 5 2 3 5 6 3 5 5 5 6 6 7 9 11 12 11 11 11 11 12 10 10 10 14 15 15 16 15 11 13 13 12 13 14 13 18 10 11
6 7 2 1 3 1 1 7 7 9 6 7 6 5 5 4 4 5 5 6 6 6 7 8 10 9 9 8 8 7 8 6 8 10 11 14 15 15 14 14 13 16 14 15 15 15 12 14 13
5 5 1 1 3 3 1 5 5 6 6 8 6 6 5 5 4 4 5 5 5 6 6 7 7 8 8 10 7 7 6 6 9 11 11 13 14 15 15 15 13 14 12 12 15 14 14 13 15
4 1 1 1 3 1 3 5 5 7 8 7 8 6 6 5 3 2 4 5 4 5 5 6 6 5 8 7 8 10 8 9 9 9 11 11 15 15 15 15 15 15 13 15 15 13 14 13 14
4 2 3 2 2 3 3 4 9 9 8 11 9 8 7 7 5 3 3 3 3 4 5 6 6 6 6 7 7 6 8 7 7 9 13 13 13 15 15 18 17 16 13 14 15 19 17 12 12
4 4 3 3 3 3 5 5 6 8 13 5 7 8 8 7 5 5 4 3 0 2 3 4 5 5 6 6 7 7 9 9 9 11 10 10 10 11 14 17 15 14 15 16 14 16 18 17 15
4 4 4 5 5 5 2 1 11 8 5 10 14 10 8 7 6 5 4 3 3 2 2 3 4 5 5 5 6 6 6 6 9 10 9 12 10 11 13 16 17 14 15 16 16 16 16 16 16
3 6 6 8 4 2 2 8 9 5 5 8 8 9 7 6 6 6 6 6 5 4 2 3 4 4 4 5 6 5 6 4 4 7 7 7 8 10 14 14 15 17 18 15 16 14 13 16 15
2 1 4 8 3 5 5 8 6 4 4 5 7 6 8 7 7 6 6 6 7 5 5 5 5 4 4 4 4 5 5 6 5 7 6 7 8 10 13 14 15 16 17 17 17 13 17 16 16
4 4 4 3 3 4 5 6 8 7 10 8 9 9 8 8 7 6 7 7 6 7 6 5 5 5 4 3 3 4 5 5 5 5 7 9 9 11 12 14 15 15 16 17 18 15 18 19 15
1 0 2 3 5 6 2 9 7 8 12 13 10 10 10 8 8 8 7 7 7 6 7 7 6 5 5 4 4 5 5 5 5 5 6 8 10 11 12 13 14 15 16 17 18 20 20 22 20
3 6 5 7 6 3 3 11 4 4 6 8 8 9 7 9 9 7 7 7 6 7 7 8 7 6 6 5 4 4 5 5 5 6 7 6 9 10 11 12 13 14 14 16 16 21 21 22 21
Wind_Direction
318 302 287 28 40 81 283 339 96 54 45 358 33 83 83 45 49 72 304 344 18 92 116 112 100 84 104 104 105 74 29 148 159 155 159 174 180 179 187 184 208 206 211 189 169 164 163 148 125
310 311 31 26 80 29 339 360 85 99 118 45 60 72 44 56 19 93 8 334 357 53 100 106 112 81 101 133 146 139 51 328 243 205 194 202 201 215 204 196 210 221 232 215 191 169 155 143 134
298 197 49 95 122 131 55 346 334 32 102 68 106 55 44 323 3 2 346 11 23 21 31 101 124 23 340 171 199 193 164 247 289 244 225 197 216 212 243 214 211 221 231 243 187 164 160 149 150
317 354 343 55 277 6 349 290 350 313 36 18 108 75 111 32 3 335 22 23 29 24 28 25 16 0 326 315 287 236 206 183 243 278 260 235 223 209 235 227 202 218 233 221 199 180 173 158 167
351 25 346 247 176 132 31 307 5 37 85 39 75 106 87 9 5 27 25 23 23 24 23 19 16 7 7 9 326 308 274 227 213 247 263 263 255 231 223 230 222 209 228 229 205 181 175 170 172
342 119 146 224 140 160 73 357 66 47 42 21 61 92 87 9 17 13 23 25 22 18 20 18 12 7 3 5 8 354 299 277 238 225 244 259 253 254 249 243 225 213 212 228 217 187 178 177 179
146 114 214 253 111 56 6 312 47 66 36 12 350 63 98 21 10 14 20 21 19 19 17 11 8 4 2 358 2 352 355 301 264 249 238 238 249 248 244 246 245 233 220 227 228 201 194 180 184
104 125 215 16 129 183 348 64 319 58 46 211 30 33 359 345 11 18 21 20 18 16 14 9 4 1 358 352 358 352 354 359 284 252 244 231 235 242 249 239 236 241 233 230 228 213 202 187 185
13 77 167 25 45 111 359 63 3 45 96 61 63 56 328 11 22 22 19 22 15 13 11 6 2 358 357 351 353 353 352 351 354 307 244 251 234 229 238 235 235 232 229 232 233 223 205 192 187
79 100 113 353 6 59 51 53 35 53 47 47 47 38 37 29 28 26 16 14 15 7 5 8 360 358 355 351 352 350 349 345 344 344 328 243 226 227 228 224 224 230 230 226 228 231 202 194 189
40 106 146 31 28 34 93 59 38 76 43 34 17 26 38 37 36 33 26 19 7 2 6 4 358 360 357 352 350 348 345 343 340 343 341 340 279 238 229 230 231 232 224 234 234 229 209 202 190
105 43 90 110 22 38 52 71 69 61 116 70 58 55 46 39 35 30 24 19 7 8 6 358 0 1 360 352 349 342 343 342 344 340 345 345 340 309 246 231 220 214 209 213 211 227 216 202 196
88 117 74 108 78 37 79 89 110 79 102 79 67 60 52 49 42 34 30 23 14 11 4 3 359 2 357 356 348 344 344 345 346 342 340 348 347 344 336 261 228 213 205 209 208 208 211 211 204
81 89 93 64 74 40 108 87 88 18 122 93 78 72 67 64 47 41 33 22 20 13 6 358 3 3 356 358 351 350 348 346 343 346 348 346 346 343 342 337 283 255 208 209 208 207 209 210 203
130 91 61 25 357 74 20 44 93 8 107 99 75 66 70 67 51 45 35 29 17 13 7 5 2 0 359 357 355 352 347 346 349 349 344 351 351 357 347 342 338 314 260 236 203 209 208 213 215
101 91 136 19 9 319 71 170 193 110 110 108 98 73 58 41 50 44 35 29 23 16 13 7 5 0 357 358 355 351 351 350 349 345 346 1 347 351 349 338 332 330 332 257 238 208 204 205 199
268 192 133 267 11 319 163 148 194 173 117 115 106 92 73 52 42 34 35 20 15 13 7 8 8 6 359 355 353 353 352 352 349 348 357 349 351 352 346 338 331 335 331 326 262 263 213 202 194
180 152 97 157 313 1 79 149 177 187 131 138 112 90 80 76 57 53 46 29 23 12 1 4 5 5 4 359 353 352 353 354 355 353 354 349 350 348 345 338 337 336 328 329 327 304 229 218 213
96 94 112 125 228 40 191 177 195 184 157 140 143 93 84 85 57 63 59 38 33 14 8 9 7 4 5 1 358 357 355 349 352 354 350 351 347 349 347 345 338 337 332 326 313 301 297 237 220
46 112 56 63 165 167 237 259 233 186 184 174 189 147 118 87 50 34 42 28 32 18 7 10 11 8 12 5 356 352 344 347 345 347 349 350 348 349 346 347 342 342 332 327 329 331 314 315 222
42 101 101 200 318 226 312 287 194 204 169 189 194 151 127 111 72 42 34 26 29 23 14 10 2 2 11 5 359 354 350 352 355 355 348 349 350 349 349 348 343 337 333 327 323 323 317 306 309
111 321 129 38 45 188 109 262 248 192 197 196 199 162 145 132 111 82 51 21 23 16 12 5 3 358 13 1 6 6 3 357 348 344 343 346 349 351 352 349 344 342 336 332 325 321 313 310 294
151 153 113 51 50 38 222 100 266 155 214 217 203 186 166 157 153 137 101 55 43 22 7 359 3 359 358 2 4 2 2 349 340 344 346 350 348 351 351 351 348 343 340 326 320 320 314 301 290
130 109 70 52 64 19 218 153 262 186 211 181 172 180 168 167 178 159 149 105 342 27 359 342 357 347 355 0 355 356 357 346 346 351 351 349 347 348 350 346 345 341 338 334 325 321 313 308 293
61 84 23 5 9 222 69 58 245 224 200 170 170 174 166 179 178 195 202 220 235 256 298 308 344 331 346 0 355 345 343 342 345 345 343 342 344 346 345 345 343 341 337 332 328 322 316 315 305
129 148 155 192 199 234 334 236 258 224 107 115 137 154 171 200 195 194 224 220 223 230 249 286 302 312 332 344 342 337 334 329 333 335 330 332 334 336 338 337 340 337 336 332 333 326 324 316 309
235 184 172 99 52 52 225 288 318 75 108 132 160 174 208 221 205 215 240 222 218 220 230 243 270 285 302 316 330 327 324 328 325 324 324 328 326 327 334 335 335 336 335 334 335 331 327 323 316
139 188 84 359 118 260 275 275 239 210 211 201 203 209 224 227 226 221 229 227 219 211 221 233 237 254 268 293 305 321 313 316 319 317 321 325 325 328 329 332 333 332 335 334 336 335 332 328 323
112 135 35 116 149 176 243 257 217 213 200 200 207 208 218 221 216 234 248 243 226 217 218 230 231 245 267 277 289 306 303 311 320 312 311 318 324 330 329 330 330 331 332 335 334 337 337 335 328
163 197 157 129 239 233 148 270 268 175 187 177 203 215 212 203 223 236 242 244 242 234 237 227 228 227 238 253 281 297 303 315 315 310 310 309 315 324 326 326 329 329 330 331 329 335 336 338 332